This is the latest recevied weather packets stored in our database for station/object K6CED. If no packets are shown the sender has not sent any weather packets the latest 10 day(s).
| Time | Temp. | Humidity | Pressure | Rain* | Wind** | Luminosity | Snow |
|---|---|---|---|---|---|---|---|
| 1777827683 | 15° C | 89% | 1016.5 hPa | 0 mm | - | 124 W/m² | - |
| 1777827380 | 15° C | 90% | 1016.5 hPa | 0 mm | - | 151 W/m² | - |
| 1777827077 | 15° C | 91% | 1016.6 hPa | 0 mm | - | 150 W/m² | - |
| 1777826774 | 14.44° C | 91% | 1016.5 hPa | 0 mm | - | 146 W/m² | - |
| 1777826470 | 14.44° C | 91% | 1016.5 hPa | 0 mm | - | 165 W/m² | - |
| 1777826167 | 14.44° C | 91% | 1016.2 hPa | 0 mm | - | 191 W/m² | - |
| 1777825864 | 14.44° C | 91% | 1016.3 hPa | 0 mm | - | 164 W/m² | - |
| 1777825562 | 14.44° C | 92% | 1016.4 hPa | 0 mm | - | 154 W/m² | - |
| 1777825260 | 14.44° C | 92% | 1016.4 hPa | 0 mm | - | 216 W/m² | - |
| 1777824956 | 14.44° C | 93% | 1016.4 hPa | 0 mm | - | 280 W/m² | - |
| 1777824652 | 13.89° C | 95% | 1016.2 hPa | 0 mm | - | 242 W/m² | - |
| 1777824350 | 13.89° C | 96% | 1016.3 hPa | 0 mm | - | 195 W/m² | - |
| 1777824045 | 13.89° C | 97% | 1016.3 hPa | 0 mm | - | 189 W/m² | - |
| 1777823741 | 13.33° C | 98% | 1016 hPa | 0 mm | - | 138 W/m² | - |
| 1777823438 | 13.33° C | 98% | 1016.3 hPa | 0 mm | - | 141 W/m² | - |
| 1777823136 | 13.33° C | 98% | 1016.6 hPa | 0 mm | - | 123 W/m² | - |
| 1777822833 | 13.33° C | 99% | 1016.5 hPa | 0 mm | - | 118 W/m² | - |
| 1777822531 | 13.33° C | 99% | 1016.2 hPa | 0 mm | - | 120 W/m² | - |
| 1777822228 | 13.33° C | 99% | 1016.3 hPa | 0 mm | - | 116 W/m² | - |
| 1777821926 | 13.33° C | 99% | 1016.2 hPa | 0 mm | - | 99 W/m² | - |
| 1777821624 | 13.33° C | 99% | 1016.2 hPa | 0 mm | - | 68 W/m² | - |
| 1777821322 | 13.33° C | 99% | 1016.3 hPa | 0 mm | - | 59 W/m² | - |
| 1777821018 | 13.33° C | 99% | 1016.2 hPa | 0 mm | - | 80 W/m² | - |
| 1777820714 | 13.33° C | 99% | 1016.3 hPa | 0 mm | - | 62 W/m² | - |
| 1777820410 | 13.33° C | 99% | 1016 hPa | 0 mm | - | 72 W/m² | - |
* Rain latest hour (hover to see other rain measurements)
** Current wind speed in m/s (hover to see current wind gust speed)